Regional Weather Roundup
Issued by NWS

Home | Current Version | Previous Version | Graphics & Text | Print | Product List | Glossary On
Versions: 1 2 3 4 5 6 7 8 9 10 11 12 13 14 15 16 17 18 19 20 21 22 23 24 25 26 27 28 29 30 31 32 33 34 35 36 37 38 39 40 41 42 43 44 45 46 47 48 49 50
000
ASUS43 KLOT 051710
RWRIL

ILLINOIS REGIONAL WEATHER ROUNDUP
NATIONAL WEATHER SERVICE CHICAGO/ROMEOVILLE IL
1100 AM CST THU MAR 05 2015

NOTE: "FAIR" INDICATES FEW OR NO CLOUDS BELOW 12,000 FEET WITH NO
SIGNIFICANT WEATHER AND/OR OBSTRUCTIONS TO VISIBILITY.

* THESE STATIONS ARE NOT UNDER NWS QUALITY CONTROL. THEY ALSO MAY NOT
  REPORT WEATHER SUCH AS PRECIPITATION OR FOG.

ILZ001-002-007-009-015-016-024-051800-
NORTHWEST ILLINOIS

CITY           SKY/WX    TMP DP  RH WIND       PRES   REMARKS
MOLINE         SUNNY      9  -3  58 NW8       30.56S WCI  -3
STERLING*      SUNNY     12   0  57 N7        30.54S WCI   2
$$

ILZ003-004-008-010-011-017-018-051800-
NORTH CENTRAL ILLINOIS

CITY           SKY/WX    TMP DP  RH WIND       PRES   REMARKS
ROCKFORD       SUNNY     10  -5  50 NW9       30.52R WCI  -3
$$

ILZ005-006-012>014-019>023-051800-
NORTHEAST ILLINOIS

CITY           SKY/WX    TMP DP  RH WIND       PRES   REMARKS
CHICAGO-OHARE  SUNNY     14  -6  40 NW12      30.47R WCI   0
CHICAGO-MIDWAY MOSUNNY   18  -4  37 NW10      30.48R WCI   6
AURORA         SUNNY     11  -2  56 NW9       30.50R WCI  -2
WAUKEGAN       SUNNY     12  -8  40 W12G17    30.47R WCI  -2
DUPAGE AIRPORT SUNNY     13  -6  42 NW10      30.48R WCI   0
WHEELING       SUNNY     15  -5  40 NW9       30.49R WCI   3
NORTHERLY ISL    N/A     18  -4  37 SW12        N/A  WCI   6
$$

LMZ740>746-051800-
SOUTHERN LAKE MICHIGAN

STATION/POSITION SKY/WX   TEMP    WIND        PRES    VSBY  WAVE
                          AIR SEA DIR/SP/G                  HT/PER
                          (F)     (DEG/KT/KT) (MB)    (MI)  (FT/S)
WAUKEGAN HARBOR            11                   N/A
HARRISON CRIB              14     290/ 10/ 14   N/A
BURNHAM HARBOR             17     340/  9/ 12   N/A
CALUMET HARBOR             17     300/  8/ 12 1030.2R
MICHIGAN CITY              18     280/ 13/ 16   N/A
$$

ILZ025>027-034>036-040-047-049-050-058-095>099-051800-
WEST-CENTRAL ILLINOIS

CITY           SKY/WX    TMP DP  RH WIND       PRES   REMARKS
QUINCY         SUNNY     12   0  58 NW12      30.58R WCI  -2
$$

ILZ028>032-037-038-041>044-048-051>054-059>061-051800-
CENTRAL ILLINOIS

CITY           SKY/WX    TMP DP  RH WIND       PRES   REMARKS
BLOOMINGTON    MOSUNNY   13   2  61 NW12      30.51R WCI  -1
DECATUR        SUNNY     15   2  56 NW16      30.52R WCI  -1
PEORIA         SUNNY     12  -4  48 NW10G17   30.56R WCI  -1
SPRINGFIELD    SUNNY     16   1  51 W14       30.56R WCI   2
TAYLORVILLE    NOT AVBL
$$

ILZ033-039-045-046-055>057-062-063-051800-
EAST-CENTRAL ILLINOIS

CITY           SKY/WX    TMP DP  RH WIND       PRES   REMARKS
CHAMPAIGN      SUNNY     13   4  67 NW15      30.49R WCI  -3
MATTOON        SUNNY     15   4  61 NW17      30.49R WCI  -1
$$

ILZ079-100>102-051800-
SOUTHWEST ILLINOIS

CITY           SKY/WX    TMP DP  RH WIND       PRES   REMARKS
ALTON          MOSUNNY   19   1  45 N7        30.57R WCI  10
BELLEVILLE     SUNNY     21   6  51 N13G20    30.55R WCI   9
CAHOKIA*       SUNNY     22   7  52 N10       30.57R WCI  11
$$

ILZ064>066-069>071-074>076-080>082-084>086-088>090-092>094-051800-
SOUTH-CENTRAL ILLINOIS

CITY           SKY/WX    TMP DP  RH WIND       PRES   REMARKS
CARBONDALE     SUNNY     21   5  50 NW14      30.53R WCI   8
MARION         SUNNY     23   5  46 N12       30.53R WCI  12
MT. VERNON     SUNNY     21   1  42 N8        30.53R WCI  12
$$

ILZ067-068-072-073-078-083-087-091-051800-
SOUTHEAST ILLINOIS

CITY           SKY/WX    TMP DP  RH WIND       PRES   REMARKS
LAWRENCEVILLE  SUNNY     21   5  50 N13       30.49R WCI   9
$$

ABBREVIATIONS USED IN REMARKS
   TC - TEMPERATURE IN CELSIUS
  WCI - WIND CHILL INDEX
   HX - HEAT INDEX
  VSB - VISIBILITY
$$



USA.gov is the U.S. government's official web portal to all federal, state and local government web resources and services.